Regional Weather Roundup
Issued by NWS

Home | Current Version | Previous Version | Text Only | Print | Product List | Glossary Off
Versions: 1 2 3 4 5 6 7 8 9 10 11 12 13 14 15 16 17 18 19 20 21 22 23 24 25 26 27 28 29 30 31 32 33 34 35 36 37 38 39 40 41 42 43 44 45 46 47 48 49 50

000
ASUS43 KBIS 020020
RWRND

NORTH DAKOTA REGIONAL WEATHER ROUNDUP
NATIONAL WEATHER SERVICE BISMARCK ND
700 PM CDT WED APR 01 2015

NOTE: "FAIR" INDICATES FEW OR NO CLOUDS BELOW 12,000 FEET WITH NO
SIGNIFICANT WEATHER AND/OR OBSTRUCTIONS TO VISIBILITY.


NDZ001>003-009>011-017-020100-
NORTHWEST NORTH DAKOTA

CITY           SKY/WX    TMP DP  RH WIND       PRES   REMARKS
WILLISTON      PTSUNNY   51  24  34 W20G28    29.66F
6HR MIN TEMP:  50; 6HR MAX TEMP:  57;

MINOT          MOSUNNY   54  21  27 W29G40    29.60R
MINOT AFB      MOSUNNY   54  26  34 NW25      29.58R
$$

NDZ018>021-031>035-040>046-020100-
SOUTHWEST NORTH DAKOTA

CITY           SKY/WX    TMP DP  RH WIND       PRES   REMARKS
BISMARCK       MOSUNNY   58  24  27 NW22G31   29.67R
6HR MIN TEMP:  57; 6HR MAX TEMP:  64;

DICKINSON      MOSUNNY   52  20  28 NW26G37   29.69R
GARRISON         N/A     55  24  30 NW25G38   29.63R
6HR MIN TEMP:  55; 6HR MAX TEMP:  59;

HETTINGER ARPT SUNNY     54  12  18 W21G35    29.73R
$$

NDZ004>008-012>016-024-026-027-054-020100-
NORTHEAST NORTH DAKOTA

CITY           SKY/WX    TMP DP  RH WIND       PRES   REMARKS
GRAND FORKS    MOCLDY    56  41  57 W24G32    29.47R
GRND FRKS AFB  MOCLDY    54  40  59 W21G30    29.49R
DEVILS LAKE    SUNNY     52  36  54 W23G30    29.55R
$$

NDZ022-023-025-028>030-036>039-047>053-020100-
SOUTHEAST NORTH DAKOTA

CITY           SKY/WX    TMP DP  RH WIND       PRES   REMARKS
FARGO          PTCLDY    63  37  38 NW16G24   29.51R
6HR MIN TEMP:  63; 6HR MAX TEMP:  73; 6HR PCP: TRACE;

JAMESTOWN      PTSUNNY   58  33  39 NW22G37   29.56R
$$



USA.gov is the U.S. government's official web portal to all federal, state and local government web resources and services.